Change the Weather History Date:

Wednesday, April 2, 2014

  Actual Average Record
Temperature  
Mean Temperature 39 °F -  
Max Temperature 48 °F 51 °F 69 °F (1967)
Min Temperature 32 °F 34 °F 28 °F (1964)
Degree Days  
Heating Degree Days 26    
Moisture  
Dew Point 28 °F    
Average Humidity 69    
Maximum Humidity 89    
Minimum Humidity 40    
Precipitation  
Precipitation 0.00 in - - ()
Sea Level Pressure  
Sea Level Pressure 30.10 in    
Wind  
Wind Speed 6 mph (WSW)    
Max Wind Speed 13 mph    
Max Gust Speed -    
Visibility 10 miles    
Events      
Averages and records for this station are not official NWS values.
T = Trace of Precipitation, MM = Missing Value Source: NWS Daily Summary

Daily Weather History Graph

Daily Weather History Graph

Search for Another Location

Airport or City:

Trip Planner

Search our weather history database for the weather conditions in past years. The results will help you decide how hot, cold, wet, or windy it might be!

Date:

Astronomy

Apr. 02, 2014 Rise Set
Actual Time 6:21 AM EDT 7:06 PM EDT
Civil Twilight 5:53 AM EDT 7:34 PM EDT
Nautical Twilight 5:20 AM EDT 8:07 PM EDT
Astronomical Twilight 4:46 AM EDT 8:41 PM EDT
Moon 8:02 AM EDT (4/2) 10:28 PM EDT (4/2)
Length of Visible Light 13h 40m
Length of Day
12h 44m
Waxing Crescent, 10% of the Moon is Illuminated
Apr 2
Waxing Crescent
Apr 7
First Quarter
Apr 15
Full
Apr 22
Last Quarter
Apr 29
New

Hourly Weather History & Observations

Time (EDT) Temp. Windchill Dew Point Humidity Pressure Visibility Wind Dir Wind Speed Gust Speed Precip Events Conditions
12:53 AM 36.0 °F 30.3 °F 30.0 °F 79% 30.10 in 10.0 mi NW 6.9 mph - N/A   Clear
1:53 AM 36.0 °F 32.1 °F 28.9 °F 76% 30.09 in 10.0 mi NW 4.6 mph - N/A   Clear
2:53 AM 34.0 °F 28.0 °F 28.9 °F 82% 30.09 in 10.0 mi WNW 6.9 mph - N/A   Clear
3:53 AM 34.0 °F 28.0 °F 28.0 °F 79% 30.09 in 10.0 mi NW 6.9 mph - N/A   Clear
4:53 AM 35.1 °F 31.0 °F 28.0 °F 76% 30.09 in 10.0 mi NNW 4.6 mph - N/A   Clear
5:53 AM 32.0 °F 27.5 °F 27.0 °F 82% 30.10 in 10.0 mi NW 4.6 mph - N/A   Clear
6:53 AM 33.1 °F 28.7 °F 28.9 °F 85% 30.12 in 10.0 mi NW 4.6 mph - N/A   Clear
8:53 AM 43.0 °F 40.3 °F 33.1 °F 68% 30.11 in 10.0 mi NNW 4.6 mph - N/A   Clear
9:53 AM 45.0 °F 43.5 °F 28.9 °F 53% 30.12 in 10.0 mi WNW 3.5 mph - N/A   Clear
10:53 AM 46.0 °F 40.2 °F 28.0 °F 50% 30.14 in 10.0 mi SW 12.7 mph - N/A   Clear
11:53 AM 46.9 °F - 25.0 °F 42% 30.13 in 10.0 mi West 9.2 mph - N/A   Clear
12:53 PM 45.0 °F 39.7 °F 24.1 °F 44% 30.13 in 10.0 mi WSW 10.4 mph - N/A   Partly Cloudy
1:53 PM 44.1 °F 39.0 °F 25.0 °F 47% 30.12 in 10.0 mi West 9.2 mph - N/A   Clear
2:53 PM 45.0 °F 40.6 °F 23.0 °F 42% 30.09 in 10.0 mi WSW 8.1 mph - N/A   Scattered Clouds
3:53 PM 45.0 °F 43.5 °F 21.9 °F 40% 30.06 in 10.0 mi SW 3.5 mph - N/A   Overcast
4:53 PM 44.1 °F 40.1 °F 30.0 °F 58% 30.08 in 10.0 mi SSW 6.9 mph - N/A   Mostly Cloudy
6:53 PM 37.9 °F 35.5 °F 30.9 °F 76% 30.09 in 10.0 mi South 3.5 mph - N/A   Clear
7:53 PM 34.0 °F 28.8 °F 30.0 °F 85% 30.10 in 10.0 mi SSE 5.8 mph - N/A   Clear
8:53 PM 36.0 °F 30.3 °F 32.0 °F 86% 30.11 in 10.0 mi South 6.9 mph - N/A   Clear
9:53 PM 33.1 °F 27.7 °F 30.0 °F 89% 30.12 in 10.0 mi SSE 5.8 mph - N/A   Clear
10:53 PM 36.0 °F 31.1 °F 32.0 °F 86% 30.11 in 10.0 mi SSE 5.8 mph - N/A   Clear
11:53 PM 36.0 °F 30.3 °F 33.1 °F 89% 30.09 in 10.0 mi South 6.9 mph - N/A   Clear